Temperature
-7 -8 -8 -8 -9 -9 -10 -10 -11 -12 -11 -11 -11 -10 -10 -11 -11 -11 -11 -10 -10 -9 -9 -8 -7 -6 -5 -4 -3 -2 -0 1 3 4 5 6 8 9
-7 -8 -8 -8 -9 -9 -9 -10 -11 -12 -12 -11 -11 -11 -11 -11 -11 -11 -11 -11 -10 -10 -9 -8 -7 -6 -5 -5 -4 -3 -1 0 2 3 4 6 7 9
-7 -8 -8 -8 -9 -9 -9 -10 -10 -11 -12 -11 -11 -11 -11 -10 -10 -10 -11 -10 -10 -10 -9 -8 -7 -7 -6 -5 -4 -3 -2 -1 1 2 4 5 7 8
-7 -8 -8 -8 -9 -9 -9 -10 -10 -11 -11 -11 -11 -11 -11 -11 -11 -11 -11 -11 -11 -10 -9 -8 -8 -7 -6 -5 -4 -3 -3 -2 -0 1 3 4 6 7
-7 -8 -8 -9 -9 -9 -10 -10 -10 -10 -10 -11 -11 -11 -11 -11 -11 -11 -11 -11 -11 -10 -10 -9 -8 -7 -6 -5 -4 -3 -3 -2 -1 1 2 4 5 7
-7 -8 -8 -9 -9 -9 -10 -10 -10 -10 -10 -10 -11 -11 -11 -11 -11 -12 -12 -12 -11 -11 -10 -9 -8 -7 -6 -5 -4 -3 -2 -2 -1 0 2 3 4 6
-7 -8 -8 -9 -9 -9 -9 -9 -9 -10 -10 -10 -10 -11 -11 -11 -11 -12 -12 -12 -12 -11 -10 -9 -9 -7 -6 -5 -4 -3 -2 -1 -1 0 1 3 4 6
-7 -8 -8 -9 -9 -9 -10 -10 -10 -9 -9 -10 -10 -11 -11 -11 -12 -12 -12 -12 -12 -11 -11 -10 -9 -8 -6 -5 -4 -3 -2 -2 -1 0 1 3 4 5
-7 -8 -8 -9 -9 -9 -9 -9 -9 -10 -10 -10 -11 -11 -11 -11 -12 -12 -12 -12 -12 -12 -12 -10 -9 -8 -6 -5 -4 -3 -2 -2 -1 0 1 2 4 5
-7 -8 -8 -9 -9 -9 -9 -9 -9 -10 -10 -11 -11 -11 -11 -11 -11 -11 -12 -12 -12 -12 -12 -11 -9 -8 -6 -5 -4 -3 -2 -2 -1 0 1 2 3 5
-7 -8 -8 -9 -9 -9 -9 -9 -9 -10 -10 -11 -11 -11 -11 -11 -12 -12 -12 -13 -13 -12 -12 -12 -10 -8 -6 -5 -4 -3 -2 -2 -1 0 1 2 3 4
-6 -7 -8 -9 -9 -9 -9 -9 -10 -10 -10 -11 -11 -11 -11 -12 -12 -13 -13 -13 -13 -13 -12 -12 -11 -10 -7 -5 -4 -3 -2 -1 -1 0 1 2 3 4
-7 -7 -8 -9 -9 -9 -9 -10 -10 -10 -10 -11 -11 -11 -11 -12 -12 -12 -13 -13 -13 -13 -12 -12 -11 -11 -10 -7 -4 -3 -2 -1 -0 0 1 2 3 3
-7 -8 -8 -9 -9 -10 -10 -10 -11 -11 -11 -11 -11 -11 -12 -12 -12 -12 -12 -12 -12 -12 -12 -12 -12 -11 -11 -9 -6 -3 -2 -1 -0 0 1 2 3 3
-7 -8 -9 -9 -10 -9 -10 -10 -11 -11 -11 -12 -12 -12 -12 -12 -12 -12 -12 -12 -12 -11 -11 -11 -11 -10 -10 -9 -7 -4 -2 -1 -1 0 1 2 3 3
-7 -8 -8 -9 -9 -9 -10 -10 -10 -11 -12 -12 -12 -12 -12 -12 -12 -12 -12 -12 -11 -10 -10 -10 -10 -10 -9 -8 -7 -5 -3 -1 -0 0 1 2 3 4
-7 -8 -8 -9 -9 -9 -9 -10 -10 -11 -11 -11 -12 -12 -12 -12 -12 -12 -12 -12 -12 -11 -9 -9 -9 -9 -8 -8 -7 -5 -3 -2 -0 0 1 2 3 4
-8 -8 -8 -9 -9 -9 -10 -10 -10 -11 -11 -11 -12 -12 -12 -12 -12 -11 -11 -12 -11 -11 -9 -9 -8 -8 -8 -7 -6 -4 -3 -1 -0 0 1 2 3 4
-8 -8 -8 -9 -9 -9 -10 -10 -10 -11 -11 -11 -11 -12 -12 -12 -12 -11 -11 -11 -11 -10 -9 -9 -8 -8 -8 -7 -4 -3 -2 -1 -0 0 1 2 3 4
-7 -8 -8 -9 -9 -10 -10 -10 -10 -11 -11 -11 -11 -11 -12 -12 -12 -11 -11 -11 -11 -10 -9 -8 -8 -8 -7 -6 -4 -3 -2 -1 -0 1 1 2 3 4
-7 -7 -8 -8 -9 -9 -10 -10 -10 -11 -11 -11 -11 -11 -11 -11 -11 -11 -11 -11 -11 -10 -9 -7 -7 -7 -6 -6 -5 -3 -2 -1 0 1 2 2 3 4
-7 -7 -8 -8 -9 -9 -10 -10 -10 -11 -11 -11 -11 -11 -11 -11 -11 -11 -11 -11 -10 -10 -9 -7 -6 -6 -6 -5 -4 -3 -2 -1 -0 1 1 2 4 4
-7 -7 -8 -8 -9 -9 -10 -10 -10 -10 -11 -11 -11 -11 -11 -11 -11 -11 -11 -10 -10 -9 -8 -7 -6 -6 -5 -4 -4 -3 -2 -1 -0 1 2 3 4 5
Wind_Speed
10 11 10 10 10 11 12 12 13 19 21 13 6 7 12 16 23 22 21 29 33 34 34 33 31 30 28 27 25 23 20 18 15 14 13 15 16 18
9 10 12 11 10 11 12 13 13 16 20 14 11 10 11 16 24 22 22 31 32 32 33 32 30 29 27 26 25 23 21 19 18 16 15 14 15 16
11 11 14 13 12 12 12 13 14 14 19 18 14 12 12 14 15 17 20 19 21 29 31 31 30 28 27 26 25 23 22 20 19 18 16 16 15 15
12 12 14 12 13 12 12 14 14 14 17 21 17 13 14 13 13 14 14 16 15 26 30 30 29 27 26 25 24 23 22 21 20 18 17 17 16 15
12 13 14 13 15 13 14 15 14 15 15 17 18 14 13 11 12 13 14 12 15 21 25 25 26 25 25 24 23 22 21 21 20 19 17 17 17 16
13 14 14 14 15 15 15 15 14 15 14 15 15 14 12 10 9 11 12 11 13 14 18 19 22 23 23 23 23 22 21 21 21 20 18 17 16 16
13 13 14 16 20 18 15 13 12 12 13 12 13 13 12 10 10 10 13 13 12 11 11 11 11 11 12 17 19 21 22 22 21 20 19 18 16 16
12 11 11 14 18 23 26 25 22 16 13 12 13 14 13 12 11 12 13 13 12 5 8 12 10 12 11 9 17 21 21 22 22 21 20 18 17 16
9 9 10 11 16 10 19 24 21 23 21 15 14 14 15 13 14 15 14 14 14 10 11 14 10 12 11 12 20 21 22 22 22 21 20 18 17 17
9 9 10 10 12 15 14 13 11 11 15 12 11 14 14 14 13 14 14 13 12 10 9 11 9 10 11 10 18 21 22 22 22 22 20 18 17 16
9 9 10 10 18 23 16 11 9 10 16 20 21 20 23 23 19 11 10 11 12 9 6 7 7 9 9 9 12 18 20 22 22 22 21 19 17 15
7 8 14 14 19 21 12 8 10 12 10 10 13 16 14 15 19 10 8 9 9 6 4 4 5 5 5 4 5 6 9 17 22 22 21 19 17 11
8 6 7 16 19 20 17 8 14 15 7 8 9 10 9 8 8 8 8 9 10 9 6 4 4 4 5 5 5 5 5 6 9 13 18 19 18 14
7 5 7 16 18 18 14 15 20 16 7 9 9 9 9 9 8 9 10 10 11 13 10 9 7 6 6 6 6 5 5 5 6 8 8 14 17 17
6 10 13 15 15 11 14 17 14 7 8 9 10 10 9 9 9 8 9 9 11 12 12 13 13 10 9 8 6 6 5 4 4 5 8 9 9 9
6 8 11 12 10 11 11 9 7 7 9 8 10 10 9 9 8 8 8 8 7 7 8 11 12 13 11 12 11 10 8 6 4 4 4 6 8 9
5 3 2 3 4 5 6 6 6 7 8 8 9 10 11 10 10 8 7 7 6 7 7 5 8 10 12 10 10 11 10 9 8 6 4 6 8 9
6 3 3 4 5 6 7 7 7 7 8 9 9 10 10 11 11 9 8 7 8 7 7 6 4 4 6 10 16 12 10 9 8 6 5 5 7 8
5 4 4 4 5 5 6 7 7 8 8 8 9 9 10 10 10 10 9 8 8 7 7 6 5 5 6 6 8 19 12 8 7 6 6 5 6 8
4 4 5 5 5 5 6 6 7 8 7 8 8 9 9 9 10 10 9 9 9 9 8 6 5 6 7 5 4 5 18 12 8 7 5 4 4 6
5 5 5 5 5 5 6 6 7 8 8 8 8 9 9 9 9 10 10 14 11 8 9 8 7 11 7 5 7 6 6 16 14 7 5 5 5 6
6 5 5 5 5 5 5 5 6 7 8 7 8 8 8 8 10 11 10 10 9 9 10 9 9 7 6 8 9 7 6 5 13 17 14 9 4 8
6 5 5 5 4 4 4 5 7 7 7 7 8 8 8 9 9 9 10 10 9 10 10 9 7 5 6 7 9 8 8 6 5 7 9 14 16 12
Wind_Direction
246 248 251 257 255 255 258 259 271 289 294 292 279 254 271 278 284 289 289 294 297 299 300 299 298 296 295 294 294 290 289 292 288 283 276 266 262 264
246 249 253 258 259 259 260 260 258 266 281 287 284 276 277 284 288 291 291 294 297 298 298 297 295 293 291 290 290 288 286 288 287 284 279 276 269 271
252 252 257 259 263 265 265 265 264 264 274 283 282 279 274 276 282 283 285 285 288 293 295 294 292 290 287 285 283 282 283 282 282 281 281 281 279 275
255 256 261 264 264 267 269 269 270 266 269 279 284 281 276 275 276 278 286 287 286 291 293 292 290 287 284 280 278 276 276 278 278 278 279 280 283 282
253 256 261 264 268 269 269 272 272 271 266 272 280 282 280 277 278 281 281 282 287 290 293 293 291 288 284 280 275 272 271 272 273 274 276 279 283 286
253 254 256 259 265 269 272 270 271 272 270 271 277 282 282 277 275 286 292 288 289 292 290 290 290 291 287 280 273 270 270 269 268 269 269 271 276 281
254 252 254 263 271 279 283 281 279 278 279 278 281 284 286 289 289 291 291 293 288 282 286 288 291 288 287 285 279 271 264 263 262 263 263 262 268 273
254 255 258 271 280 288 292 295 292 290 291 288 290 289 291 290 290 288 288 290 291 272 280 288 286 283 279 270 269 267 263 260 256 256 256 257 260 265
246 254 268 272 289 287 288 290 290 290 293 294 291 288 289 287 284 282 277 276 277 278 286 286 281 278 277 272 270 262 258 255 253 249 249 249 253 258
242 247 258 267 276 284 278 278 269 271 280 282 271 274 276 277 271 273 275 277 275 271 266 276 280 278 279 269 267 259 253 248 247 244 243 242 245 250
247 250 257 262 282 293 295 289 282 280 293 296 298 299 301 304 304 299 292 288 288 285 263 265 280 286 277 265 258 253 247 243 241 239 237 236 236 241
253 252 269 280 291 298 299 293 294 294 291 295 299 300 297 296 300 295 287 282 283 284 256 258 279 300 298 276 258 254 245 240 236 234 232 231 227 228
259 252 257 287 296 301 308 303 296 306 313 303 298 294 290 284 280 272 261 260 264 259 257 270 276 288 291 306 306 276 255 244 232 229 227 224 220 215
247 249 263 288 298 306 311 305 309 321 319 306 303 303 302 300 293 282 271 260 253 255 254 243 251 255 272 288 289 301 293 255 230 218 211 214 217 217
240 264 281 295 307 311 305 307 318 317 304 304 306 304 300 294 293 290 282 272 264 255 251 241 240 243 244 253 271 292 303 286 257 227 208 203 201 201
266 272 286 298 303 300 303 308 304 295 302 302 303 302 302 302 302 301 300 299 290 275 253 241 235 231 237 241 250 263 270 280 289 272 232 209 199 198
226 215 238 280 290 293 293 292 293 300 306 305 306 309 311 312 311 309 300 299 291 293 293 272 238 227 228 231 240 248 255 259 263 266 242 214 205 200
222 209 245 262 276 288 297 301 302 302 304 307 307 308 311 311 311 310 306 300 297 294 291 287 270 228 221 234 229 240 246 251 256 254 240 218 208 201
216 218 239 253 267 278 285 291 295 298 301 302 303 306 308 310 310 312 312 310 304 297 290 281 264 236 229 242 232 213 223 235 240 242 232 218 207 200
197 219 234 245 258 271 280 287 292 298 300 301 304 304 306 309 310 311 311 309 308 305 299 283 256 240 236 252 273 230 210 219 226 226 220 216 215 201
212 221 228 237 252 264 275 282 287 294 296 301 303 305 308 309 308 309 309 311 314 306 302 295 275 270 258 254 260 250 223 214 219 220 204 195 189 184
212 219 226 233 244 256 270 278 286 291 295 298 302 305 307 307 307 309 310 311 309 303 298 293 285 273 232 227 239 248 246 225 223 235 247 249 195 183
209 213 221 231 240 252 262 272 280 288 291 295 301 305 308 310 308 308 308 309 308 308 308 306 299 270 244 238 241 245 239 226 209 208 227 239 242 247
Height
1459 1457 1454 1451 1448 1445 1441 1436 1430 1417 1404 1403 1401 1398 1395 1391 1386 1382 1377 1372 1367 1362 1358 1354 1351 1350 1348 1346 1345 1346 1348 1351 1355 1360 1366 1371 1377 1383
1452 1449 1446 1443 1440 1437 1433 1428 1423 1415 1401 1394 1392 1389 1386 1383 1379 1375 1369 1364 1359 1354 1349 1346 1344 1343 1342 1341 1340 1340 1342 1345 1348 1353 1359 1364 1370 1375
1444 1441 1438 1436 1432 1428 1424 1419 1414 1408 1397 1387 1385 1381 1377 1373 1369 1366 1361 1355 1350 1345 1342 1338 1336 1335 1335 1334 1334 1335 1337 1339 1343 1347 1351 1357 1363 1369
1435 1433 1430 1428 1424 1420 1416 1410 1405 1400 1393 1382 1376 1373 1369 1365 1361 1357 1352 1347 1342 1337 1333 1330 1328 1327 1327 1327 1328 1329 1331 1334 1337 1340 1345 1350 1355 1361
1428 1425 1422 1420 1415 1412 1407 1402 1397 1391 1386 1377 1369 1365 1361 1357 1353 1348 1344 1339 1334 1329 1325 1321 1319 1318 1318 1319 1320 1323 1325 1327 1331 1335 1339 1344 1349 1354
1420 1417 1415 1411 1407 1403 1398 1393 1389 1383 1378 1371 1364 1358 1354 1350 1346 1341 1335 1331 1326 1322 1317 1314 1311 1309 1309 1310 1313 1315 1318 1321 1325 1329 1334 1339 1344 1349
1412 1410 1407 1404 1400 1397 1392 1387 1382 1376 1371 1364 1358 1352 1348 1344 1340 1335 1329 1323 1318 1315 1311 1307 1305 1302 1301 1302 1304 1307 1311 1315 1319 1324 1328 1334 1339 1344
1404 1402 1399 1396 1393 1388 1385 1380 1376 1371 1365 1359 1352 1347 1341 1337 1333 1328 1323 1318 1312 1309 1306 1301 1299 1296 1295 1296 1298 1301 1304 1308 1313 1318 1323 1328 1334 1340
1397 1394 1391 1388 1385 1380 1375 1371 1368 1364 1360 1354 1346 1340 1334 1330 1325 1320 1316 1311 1306 1303 1301 1293 1292 1290 1289 1289 1291 1294 1298 1302 1307 1312 1317 1323 1329 1335
1390 1387 1384 1380 1377 1373 1368 1363 1359 1356 1351 1345 1339 1333 1328 1322 1318 1313 1308 1304 1299 1297 1295 1289 1285 1284 1283 1283 1285 1288 1292 1296 1301 1307 1312 1318 1324 1330
1383 1380 1377 1373 1370 1367 1363 1358 1352 1348 1343 1338 1333 1327 1322 1316 1312 1307 1302 1299 1293 1290 1289 1286 1281 1279 1277 1277 1280 1283 1286 1291 1296 1301 1306 1313 1319 1325
1375 1373 1371 1367 1364 1362 1358 1352 1346 1340 1335 1329 1324 1319 1313 1308 1304 1300 1296 1292 1289 1285 1283 1282 1279 1278 1275 1273 1275 1277 1281 1285 1290 1296 1301 1307 1314 1320
1368 1366 1364 1361 1358 1356 1353 1347 1341 1336 1330 1323 1317 1311 1306 1301 1296 1293 1289 1286 1283 1280 1280 1279 1276 1276 1275 1272 1271 1273 1276 1280 1285 1291 1296 1303 1310 1316
1362 1360 1358 1355 1353 1350 1346 1341 1337 1332 1325 1318 1312 1306 1300 1295 1290 1286 1282 1279 1276 1274 1273 1273 1272 1272 1272 1270 1268 1270 1273 1276 1280 1285 1291 1297 1304 1310
1356 1354 1352 1350 1347 1343 1340 1336 1332 1326 1320 1314 1308 1302 1296 1290 1284 1280 1276 1272 1269 1267 1266 1265 1266 1266 1267 1266 1265 1266 1269 1272 1276 1281 1286 1291 1298 1304
1351 1349 1347 1344 1342 1338 1335 1331 1327 1322 1317 1311 1304 1298 1292 1286 1280 1275 1271 1267 1263 1261 1261 1260 1260 1260 1261 1261 1262 1262 1265 1268 1272 1277 1282 1287 1293 1300
1345 1343 1341 1339 1336 1334 1330 1327 1323 1318 1313 1307 1301 1294 1288 1282 1276 1272 1267 1263 1260 1256 1255 1255 1255 1255 1256 1257 1258 1258 1261 1264 1268 1273 1278 1283 1288 1294
1339 1337 1336 1334 1331 1328 1325 1322 1319 1314 1309 1304 1298 1292 1286 1279 1273 1268 1264 1260 1256 1253 1251 1250 1251 1251 1253 1252 1253 1254 1257 1260 1265 1269 1273 1278 1283 1290
1334 1332 1331 1329 1327 1324 1321 1318 1315 1311 1306 1301 1295 1290 1283 1277 1271 1265 1260 1256 1252 1249 1247 1247 1247 1247 1248 1248 1248 1250 1252 1256 1261 1265 1269 1274 1279 1286
1328 1327 1326 1324 1322 1320 1317 1314 1311 1307 1303 1298 1293 1287 1281 1275 1269 1263 1258 1254 1249 1246 1244 1243 1243 1243 1244 1245 1246 1247 1249 1252 1256 1260 1265 1271 1277 1284
1323 1322 1321 1320 1318 1316 1314 1311 1308 1304 1300 1295 1290 1285 1279 1273 1267 1261 1256 1251 1247 1243 1240 1239 1239 1239 1240 1241 1242 1242 1245 1248 1251 1256 1262 1267 1273 1280
1318 1318 1317 1315 1314 1312 1310 1307 1304 1301 1297 1293 1288 1282 1277 1271 1265 1259 1254 1249 1244 1240 1237 1235 1234 1234 1235 1236 1236 1237 1240 1243 1247 1251 1257 1263 1268 1275
1313 1313 1312 1311 1310 1308 1306 1304 1301 1298 1294 1290 1285 1280 1275 1269 1263 1258 1252 1247 1242 1238 1234 1231 1230 1229 1229 1230 1232 1233 1236 1239 1242 1247 1252 1258 1264 1271